TIME,DELAY(SENSOR),PRES,OXYGEN,RAWTEMP,T(OPTODE),TCPHASE,FLUOR,BETA(BETA700),BETA(BETA412),BETA(BETA440),CDOM,C(CSC),ED(ED412.40),ED(ED444.00),ED(ED489.70),ED(ED554.30),LU(LU411.80),LU(LU443.40),LU(LU489.60),LU(LU554.10),COMP,TILTX,TILTY,CHECK
1375584939,5810,863.4199829101562000,44.9512596130371100,660.8054809570312000,4.6014518737792970,54.2705383300781250,52,99,86,77,80,15329,2147757732,2147423762,2148012096,2147876379,2147640859,2147057581,2148257472,2147198208,1604,3,13,39960
1375588535,5811,944.7299804687500000,47.9607696533203100,668.7626953125000000,4.3390622138977050,53.9389610290527340,52,99,86,80,79,15332,2147755200,2147423469,2148013458,2147873956,2147641664,2147049636,2148256493,2147198235,1032,4,13,38817
1375592135,5813,953.4199829101562000,49.2400512695312500,670.9993286132812000,4.2651820182800290,53.7863616943359400,53,100,83,79,79,15332,2147757385,2147423707,2148013842,2147875483,2147641883,2147053988,2148263661,2147199488,127,4,13,3430
1375595735,5805,978.1799926757812000,49.8938903808593750,673.9810791015625000,4.1665949821472170,53.7323608398437500,53,101,87,79,80,15331,2147757193,2147425197,2148012900,2147875437,2147641590,2147048256,2148258294,2147201609,3493,4,13,28559
1375599335,5808,982.1400146484375000,50.4127616882324200,675.1953735351562000,4.1264190673828125,53.6777915954589840,52,98,84,77,80,15333,2147761764,2147421961,2148016301,2147874953,2147646262,2147047533,2148264374,2147201517,3204,4,13,48803
1375602935,5808,989.8699951171875000,50.4108085632324200,675.2910766601562000,4.1232528686523440,53.6841011047363300,51,101,86,78,79,15326,2147757531,2147422354,2148014144,2147875840,2147642962,2147050633,2148260873,2147199707,3411,4,13,52643
1375606535,5810,994.7500000000000000,50.2725601196289060,674.9746704101562000,4.1337218284606930,53.6982307434082000,53,98,86,79,80,15331,2147756077,2147423497,2148013558,2147872749,2147641161,2147053970,2148263616,2147198500,3481,4,13,38681
1375610135,5810,996.6900024414062000,50.1852989196777340,675.6666259765625000,4.1108250617980960,53.7138099670410160,53,97,87,79,80,15330,2147758619,2147427702,2148011830,2147874651,2147642093,2147049682,2148262820,2147202185,266,4,13,32626
1375613735,5807,1002.0100097656250000,50.1545982360839840,675.2686767578125000,4.1239929199218750,53.7155113220214840,53,98,88,79,79,15327,2147758838,2147425078,2148015872,2147873042,2147642541,2147052278,2148267702,2147201856,209,4,13,56949
1375617335,5814,1004.5700073242188000,49.7980995178222660,674.0324096679688000,4.1648998260498050,53.7511291503906250,52,98,80,78,80,15329,2147755072,2147423981,2148010852,2147874605,2147641334,2147049664,2148263552,2147196800,167,4,13,49681
1375620935,5810,1005.7999877929688000,49.3908615112304700,673.9287719726562000,4.1683249473571780,53.8012809753418000,52,98,83,78,78,15330,2147753371,2147427218,2148011474,2147873033,2147641060,2147051346,2148258779,2147198445,403,4,13,25621
1375624535,5807,1004.3300170898438000,49.4064788818359400,674.3939819335938000,4.1529369354248050,53.8096389770507800,52,98,89,78,79,15327,2147755958,2147423661,2148013494,2147875849,2147640822,2147055524,2148259693,2147199286,3575,4,13,61770
1375628135,5810,1004.4400024414062000,49.7575492858886700,675.2094726562500000,4.1259517669677730,53.7691993713378900,53,100,83,77,79,15329,2147757376,2147425801,2148010669,2147870948,2147642971,2147051017,2148265600,2147194486,3309,4,13,30252
1375631735,5810,1002.2000122070312000,50.3915100097656250,677.1207275390625000,4.0626850128173830,53.7047080993652340,52,99,82,79,79,15333,2147755931,2147426166,2148014784,2147876224,2147646518,2147054957,2148262390,2147194130,3389,4,13,60640
1375635335,5811,997.9799804687500000,50.7269096374511700,677.8372802734375000,4.0389499664306640,53.6699104309082000,53,98,87,78,80,15329,2147756699,2147425051,2148011958,2147874148,2147642468,2147059675,2148265810,2147202093,3364,4,13,33082
1375638935,5808,1004.7399902343750000,51.0299911499023440,677.8894042968750000,4.0372262001037600,53.6308708190918000,53,97,88,78,79,15326,2147754578,2147426560,2148014720,2147873408,2147644032,2147050121,2148265252,2147200457,3542,4,13,47032
1375642535,5810,1006.3200073242188000,50.8135681152343750,677.1848754882812000,4.0605578422546390,53.6480293273925800,52,97,84,78,78,15328,2147757046,2147424411,2148012141,2147875300,2147645458,2147050962,2148260361,2147198637,3458,4,13,44123
1375646135,5809,1005.6300048828125000,51.2810783386230500,677.3201293945312000,4.0560841560363770,53.5874214172363300,53,98,86,78,80,15326,2147758198,2147425170,2148010075,2147874870,2147639478,2147050157,2148264475,2147197888,382,4,13,24837
1375649735,5807,1004.0100097656250000,51.0711708068847660,677.3052978515625000,4.0565719604492190,53.6184310913085940,52,96,83,79,79,15328,2147756854,2147423917,2148012178,2147876105,2147642971,2147052242,2148262683,2147199945,3423,4,13,15072
1375653335,5808,1005.7000122070312000,51.4159889221191400,677.7081298828125000,4.0432319641113280,53.5771598815918000,52,100,83,78,80,15326,2147757449,2147425206,2148013750,2147873270,2147639780,2147056429,2148264338,2147194715,3110,4,13,34105
1375656935,5805,1015.0200195312500000,50.3345108032226560,675.9727172851562000,4.1006932258605960,53.6995582580566400,52,98,88,78,79,15325,2147757430,2147422518,2148013641,2147876178,2147642669,2147052882,2148265417,2147194221,3253,3,13,40019
1375660535,5812,1006.3900146484375000,49.6389083862304700,675.1168823242188000,4.1290168762207030,53.7831001281738300,52,102,85,78,79,15322,2147755181,2147426843,2148013385,2147873408,2147642212,2147047744,2148263808,2147197842,59,4,13,18436
1375664135,5810,1011.3200073242188000,49.6409797668457000,675.8587036132812000,4.1044669151306150,53.7962989807128900,53,98,84,79,80,15324,2147751515,2147425225,2148015067,2147875200,2147640292,2147048987,2148261696,2147198518,3508,4,13,52645
1375667735,5809,1015.9699707031250000,49.2083511352539060,675.3657226562500000,4.1207871437072750,53.8471908569335940,53,98,86,78,79,15322,2147754532,2147427300,2148012617,2147871652,2147644233,2147056073,2148259136,2147196333,366,4,13,3876
1375671335,5812,1006.5599975585938000,49.5878906250000000,676.4138793945312000,4.0860900878906250,53.8109092712402340,52,99,86,78,81,15320,2147756589,2147426697,2148012032,2147874633,2147645302,2147050944,2148263232,2147195657,289,4,13,27106
1375674935,5812,1013.2000122070312000,49.8659400939941400,677.1823120117188000,4.0606460571289060,53.7814407348632800,53,98,88,78,79,15305,2147756662,2147428077,2148009572,2147872640,2147640667,2147050560,2148258112,2147196150,3571,3,13,13756
1375678535,5809,1018.7500000000000000,50.0576782226562500,675.8848876953125000,4.1036000251770020,53.7347793579101560,53,104,83,77,80,15306,2147754998,2147425545,2148012909,2147873280,2147641380,2147054070,2148260955,2147192731,3326,4,13,56292
1375682135,5810,1015.9299926757812000,49.4958381652832000,675.0366210937500000,4.1316738128662110,53.8047599792480500,52,98,88,78,79,15303,2147754742,2147426806,2148012525,2147871936,2147639332,2147050285,2148259126,2147197769,73,4,13,8994
1375685735,5808,1005.1099853515625000,49.5063209533691400,675.7523193359375000,4.1079878807067870,53.8118782043457000,53,99,83,80,79,15301,2147752347,2147424283,2148013558,2147873453,2147642349,2147058697,2148258998,2147193334,401,4,13,29445
1375689335,5805,1008.8099975585938000,50.0660705566406250,676.9721069335938000,4.0676059722900390,53.7519912719726560,52,102,85,78,79,15306,2147756708,2147424512,2148015442,2147871323,2147642176,2147048457,2148263844,2147194048,130,3,13,17226
1375692935,5807,1013.1500244140625000,50.4171104431152340,676.3909301757812000,4.0868511199951170,53.6947898864746100,53,98,85,78,80,15309,2147754230,2147427382,2148013412,2147876004,2147642816,2147051510,2148265883,2147195236,536,4,13,43528
1375696535,5809,1016.4000244140625000,49.2797203063964840,676.1480712890625000,4.0948891639709470,53.8463706970214840,52,99,85,78,79,15305,2147756918,2147425051,2148013376,2147872402,2147639734,2147053357,2148264054,2147199899,164,4,13,18798
1375700135,5811,1014.1199951171875000,49.1023406982421900,676.1923217773438000,4.0934238433837890,53.8708801269531250,53,99,85,79,79,15306,2147759506,2147423040,2148016896,2147872795,2147640448,2147056320,2148258916,2147198354,32,4,13,48728
1375703735,5809,1018.0900268554688000,48.8974914550781250,675.8488769531250000,4.1047940254211430,53.8966102600097660,53,97,84,79,79,15300,2147756982,2147424484,2148012013,2147874102,2147640109,2147057536,2148263908,2147197101,3566,4,13,43631
1375707335,5811,1019.2199707031250000,49.6236686706543000,675.5186767578125000,4.1157212257385250,53.7924995422363300,52,99,88,78,79,15305,2147756726,2147425974,2148016109,2147871149,2147641206,2147054171,2148262893,2147195803,101,4,13,35809
1375710935,5809,1005.1500244140625000,49.5842285156250000,676.6220703125000000,4.0791950225830080,53.8115196228027340,53,98,85,79,79,15303,2147755392,2147422994,2148013668,2147873078,2147641965,2147052480,2148260818,2147197110,139,4,13,53420
1375714535,5810,1020.2800292968750000,50.4590606689453100,676.6275024414062000,4.0790162086486820,53.6905288696289060,52,97,83,78,79,15302,2147756452,2147425252,2148014208,2147872402,2147642825,2147056548,2148262080,2147196260,617,4,13,26745
1375718135,5809,1019.8800048828125000,49.6982688903808600,675.5291137695312000,4.1153759956359860,53.7848396301269500,52,99,86,78,80,15303,2147756800,2147424566,2148013586,2147872621,2147640822,2147055085,2148261174,2147197778,3521,4,13,51321
1375721735,5810,1022.9699707031250000,49.1114196777343750,675.9948730468750000,4.0999579429626465,53.8694381713867200,53,98,81,78,79,15301,2147759104,2147424594,2148014326,2147873142,2147642752,2147052507,2148256228,2147195035,320,4,13,7730
1375725335,5811,1015.4199829101562000,49.7141418457031250,676.4503173828125000,4.0848851203918460,53.7937011718750000,52,99,88,79,79,15305,2147759204,2147423606,2148013869,2147871908,2147641298,2147053979,2148260717,2147195602,3499,3,13,60674
1375728955,5812,1011.6799926757812000,49.9973716735839840,677.8723754882812000,4.0377898216247560,53.7701110839843750,52,99,85,78,79,15317,2147761956,2147428434,2148016475,2147875675,2147644105,2147055899,2148262089,2147195456,231,4,13,15132
